Regional Weather Roundup
Issued by NWS

Home | Current Version | Previous Version | Graphics & Text | Print | Product List | Glossary On
Versions: 1 2 3 4 5 6 7 8 9 10 11 12 13 14 15 16 17 18 19 20 21 22 23 24 25 26 27 28 29 30 31 32 33 34 35 36 37 38 39 40 41 42 43 44 45 46 47 48 49 50
000
ASUS43 KDMX 171401
RWRIA

WEATHER ROUNDUP FOR IOWA
NATIONAL WEATHER SERVICE DES MOINES IA
800 AM CST FRI NOV 17 2017

NOTE: "FAIR" INDICATES FEW OR NO CLOUDS BELOW 12,000 FEET WITH NO
SIGNIFICANT WEATHER AND/OR OBSTRUCTIONS TO VISIBILITY.

* - THESE STATIONS ARE NOT NWS STATIONS...THUS NOT UNDER NWS
QUALITY CONTROL.  THEY ALSO DO NOT REPORT WEATHER SUCH
AS PRECIPITATION OR FOG.

IAZ001>003-012>014-020>022-031>034-043>046-171500-
   NORTHWEST IOWA

CITY           SKY/WX    TMP DP  RH WIND       PRES   REMARKS
CARROLL *      CLOUDY    46  39  76 SE10      29.70R
CHEROKEE *     CLOUDY    46  40  78 S8        29.64F
DENISON *      CLOUDY    48  43  81 VRB6      29.68S
LE MARS *      CLOUDY    48  41  76 S14G21    29.61F
ORANGE CITY *  CLOUDY    48  45  87 S14G22    29.61F
SHELDON *      CLOUDY    46  39  76 S13G21    29.60F
SIOUX CITY     CLOUDY    46  38  73 SE9       29.62F
SPENCER        CLOUDY    42  34  73 S17       29.64S
STORM LAKE *   CLOUDY    45  37  76 S16       29.65F
$$

IAZ055>058-069>071-079>083-090>094-171500-
   SOUTHWEST IOWA

CITY           SKY/WX    TMP DP  RH WIND       PRES   REMARKS
ATLANTIC *     CLOUDY    50  43  76 S12G18    29.68F
AUDUBON *      CLOUDY    46  41  81 SE8       29.69F
CLARINDA *     CLOUDY    52  45  76 S10         N/A
COUNCIL BLFS * CLOUDY    52  52 100 S13       29.65S
CRESTON *      CLOUDY    45  37  76 SE14      29.74F
HARLAN  *      CLOUDY    50  45  81 S13       29.70S
LAMONI         CLOUDY    47  39  74 SE10G23   29.77S
RED OAK *      CLOUDY    52  45  76 SE9G15    29.68F
SHENANDOAH *   CLOUDY    52  48  87 SE13      29.67F
$$

IAZ047>049-059>061-072>074-084-171500-
   CENTRAL IOWA

CITY           SKY/WX    TMP DP  RH WIND       PRES   REMARKS
AMES           CLOUDY    39  35  86 SE16      29.75F WCI  30
ANKENY *       CLOUDY    41  36  81 SE13G20   29.78F
BOONE *        CLOUDY    39  34  81 SE21      29.72F WCI  29
CHARITON *     CLOUDY    43  37  81 SE14      29.79F
DES MOINES     CLOUDY    44  36  73 SE16      29.77F
GRINNELL*      CLOUDY    37  33  88 SE20      29.83F WCI  26
KNOXVILLE *    CLOUDY    41  36  81 SE13      29.79F
MARSHALLTOWN   CLOUDY    37  33  85 SE18      29.79F WCI  27
NEWTON *       CLOUDY    37  34  87 SE18      29.80F WCI  27
PELLA *        CLOUDY    40  35  82 SE10      29.83F WCI  33
PERRY *        CLOUDY    44  37  76 SE16      29.73S
$$

IAZ004>006-015-016-023>025-035-036-171500-
   NORTH CENTRAL IOWA

CITY           SKY/WX    TMP DP  RH WIND       PRES   REMARKS
ALGONA *       CLOUDY    39  36  87 S24G30    29.66F WCI  28
CLARION *      CLOUDY    39  39 100 S22G30    29.71F WCI  29
ESTHERVILLE    CLOUDY    39  34  82 S25G35    29.64F WCI  28
FORT DODGE *   CLOUDY    41  34  76 S10G18    29.70F
MASON CITY     CLOUDY    35  31  85 S23G30    29.74F WCI  23
FOREST CITY *  CLOUDY    36  34  93 S17G24    29.71F WCI  25
WEBSTER CITY * CLOUDY    39  34  81 SE20      29.72S WCI  30
IOWA FALLS *   CLOUDY    37  34  89 SE18      29.76F WCI  27
$$

IAZ007>011-017>019-026>030-037>042-050>054-066-171500-
   NORTHEAST IOWA

CITY           SKY/WX    TMP DP  RH WIND       PRES   REMARKS
CEDAR RAPIDS   CLOUDY    35  32  88 SE14      29.88F FOG     WCI  26
CHARLES CITY * CLOUDY    36  36 100 SE13G22   29.78F WCI  27
CLINTON *      CLOUDY    34  31  88 SE20G28   29.96F FOG     WCI  23
DECORAH *      CLOUDY    34  30  86 S15G24    29.81R WCI  24
DUBUQUE        CLOUDY    32  29  88 S21G31    29.90F WCI  20
MONTICELLO *   CLOUDY    34  30  86 SE13G21   29.90F WCI  25
OELWEIN *      CLOUDY    34  34 100 S22G31    29.82F WCI  22
WATERLOO       CLOUDY    35  30  82 SE17G25   29.80F WCI  25
$$

IAZ064-065-067-068-078-171500-
   EAST CENTRAL IOWA

CITY           SKY/WX    TMP DP  RH WIND       PRES   REMARKS
DAVENPORT      CLOUDY    35  30  82 SE15G24   29.95F WCI  25
IOWA CITY      CLOUDY    36  33  89 SE15      29.92F WCI  27
MT. PLEASANT * CLOUDY    36  32  85 SE16      29.92F WCI  26
MUSCATINE *    CLOUDY    36  32  87 S12G18    29.95S WCI  27
QUAD CITIES    CLOUDY    36  30  79 SE12G24   29.95F WCI  28
$$

IAZ062-063-075>077-085>089-095>099-171500-
   SOUTHEAST IOWA

CITY           SKY/WX    TMP DP  RH WIND       PRES   REMARKS
BURLINGTON     CLOUDY    36  34  92 SE12      29.94F WCI  28
FAIRFIELD *    CLOUDY    37  34  87 SE14      29.88F WCI  29
FORT MADISON * CLOUDY    36  34  93 SE10G16   29.94F FOG     WCI  28
KEOKUK *       CLOUDY    36  34  93 SE9       29.93F FOG     WCI  29
OSKALOOSA *    CLOUDY    37  34  90 SE16      29.85F FOG     WCI  27
OTTUMWA        CLOUDY    39  34  82 SE16      29.85F WCI  30
WASHINGTON *   CLOUDY    36  36 100 SE17G23   29.91F WCI  25
$$

ABBREVIATIONS USED IN REMARKS
   TC - TEMPERATURES IN CELSIUS
  WCI - WIND CHILL INDEX
   HX - HEAT INDEX
  VSB - VISIBILITY
$$





USA.gov is the U.S. government's official web portal to all federal, state and local government web resources and services.